RH
60 55 53 53 62 90 73 72 66 74 66 52 55 64 50 40 33 40 38 34 23 22 26 34 45 44 40 43 40 50 96 96 96 96 97 100 100 100 100 100 100 100 100 99
67 49 54 62 56 63 72 82 73 60 65 46 45 45 41 32 37 42 38 28 22 22 26 28 46 45 40 44 41 39 76 95 96 96 96 98 99 100 100 100 100 100 99 100
72 50 56 71 69 58 81 87 66 80 63 76 62 64 40 32 36 30 28 24 23 22 24 30 38 48 41 42 41 36 36 83 94 95 97 96 96 99 100 100 100 100 100 100
83 69 80 57 49 53 59 67 67 63 61 58 48 34 31 22 20 19 21 23 24 23 24 27 30 42 43 40 39 36 32 38 88 93 95 96 93 95 98 100 100 100 100 100
94 97 63 50 43 62 64 52 50 54 44 40 37 30 21 17 18 20 22 25 26 25 24 26 28 35 40 40 37 36 34 34 41 92 93 95 94 94 95 96 98 99 100 100
96 97 89 61 28 30 29 47 34 44 41 40 30 43 44 19 19 21 25 26 27 27 26 25 28 29 37 38 39 37 37 37 37 46 91 93 96 98 99 95 95 96 97 99
82 96 77 52 28 26 54 50 25 29 26 30 43 32 20 19 20 22 26 28 29 30 28 26 27 29 31 38 39 41 41 38 35 36 64 92 96 96 96 97 96 96 96 95
78 96 93 39 34 49 44 22 21 21 20 22 20 23 26 31 28 26 28 30 31 33 33 28 26 28 31 34 36 38 40 40 36 33 40 79 91 92 94 94 96 96 96 95
76 67 59 35 42 29 25 26 24 26 29 24 17 26 34 28 28 29 29 30 33 35 37 33 27 27 30 33 35 34 37 40 40 38 35 46 86 88 89 90 93 94 95 95
78 64 64 59 49 44 40 35 33 35 32 40 26 31 42 26 23 22 23 26 32 36 39 38 32 28 29 33 35 36 36 37 40 40 37 37 55 88 90 90 94 94 94 95
81 68 57 47 43 34 38 39 32 37 36 28 43 46 45 29 27 25 24 26 30 31 38 43 39 32 29 32 36 38 39 40 42 40 38 40 39 52 91 96 100 100 100 95
73 56 61 74 44 42 65 41 40 42 46 34 30 27 28 30 30 30 30 32 30 31 32 40 40 37 31 33 36 39 40 43 46 43 39 41 39 38 44 58 87 92 100 99
54 50 86 67 76 46 87 50 60 54 50 75 45 33 30 30 36 43 40 55 44 32 30 29 32 35 33 34 38 39 40 43 51 50 42 42 41 40 35 37 40 47 90 92
93 83 85 92 89 93 97 97 90 82 88 93 96 48 42 39 67 81 70 71 66 33 28 26 29 33 33 38 39 36 36 42 53 56 48 47 48 48 46 43 40 38 41 77
95 96 96 96 96 96 98 95 92 93 94 94 97 81 88 89 89 73 46 51 62 39 28 28 30 34 38 38 34 31 33 38 54 57 53 56 54 53 53 54 51 47 43 59
96 96 95 96 97 96 94 92 97 95 95 96 96 95 96 96 88 73 62 44 43 39 34 32 33 42 39 35 30 35 41 44 61 60 56 66 62 59 58 59 59 57 52 52
95 88 95 88 86 92 94 98 96 97 98 97 97 97 96 96 91 86 63 43 46 43 36 37 45 40 36 35 38 50 46 58 67 69 59 66 72 69 69 67 65 65 62 58
97 96 95 94 97 84 80 92 94 97 97 98 97 96 96 96 90 63 41 40 47 43 44 45 43 39 39 45 56 60 58 71 71 66 66 70 75 79 81 80 77 71 68 63
94 100 90 90 86 94 88 95 97 99 100 97 97 96 96 96 75 49 44 44 46 48 47 46 43 47 56 63 69 70 72 76 73 72 72 84 92 87 91 93 85 78 75 73
66 63 62 62 71 94 97 94 98 99 99 96 96 96 96 85 58 51 50 51 53 52 52 52 52 62 75 81 87 86 82 81 79 80 81 84 92 97 100 97 95 89 82 83
66 70 69 81 73 84 98 97 96 96 96 96 96 97 81 59 57 57 57 58 60 58 58 62 68 82 87 92 90 93 92 94 88 88 94 99 100 100 100 97 98 95 90 85
73 76 76 80 96 98 96 96 95 95 95 96 96 87 62 59 61 65 67 65 66 87 75 70 68 81 92 98 98 92 95 97 99 99 98 98 98 97 97 99 98 95 93 91
89 89 97 99 97 98 98 96 96 95 96 96 87 63 61 63 67 69 67 70 71 76 68 66 89 99 100 100 97 95 93 92 93 95 97 96 97 97 96 93 91 93 91 88
94 97 100 100 99 100 95 96 96 95 94 77 65 65 62 66 74 72 75 77 80 93 76 83 100 98 89 90 92 96 96 95 94 93 94 95 93 93 92 90 88 89 87 90
97 97 98 99 99 96 95 95 95 93 74 70 72 80 82 80 79 79 72 74 100 83 81 100 100 83 85 84 82 80 79 80 82 80 80 80 82 85 86 88 91 91 96 97
99 99 98 97 96 96 96 96 95 77 76 77 84 85 83 83 76 64 61 65 66 69 76 77 79 76 72 70 67 62 57 54 52 52 49 48 49 50 50 49 49 50 58 71
96 96 96 95 95 96 97 96 74 76 82 82 80 87 86 73 61 60 61 72 79 75 72 73 70 55 46 45 48 50 54 62 70 78 84 86 89 90 91 91 90 89 83 70
Wind_Speed
11 17 12 13 9 11 11 7 8 4 8 13 15 10 18 24 19 16 13 13 14 16 17 17 17 19 21 23 27 27 26 25 27 25 21 17 10 5 0 5 14 19 21 28
7 8 7 12 15 16 17 4 13 15 22 22 31 20 14 14 13 14 10 10 13 14 16 17 17 19 20 22 26 27 25 26 25 26 23 20 16 12 5 0 6 14 18 26
6 4 12 9 9 18 8 5 8 8 14 1 5 6 11 13 13 12 8 8 12 13 14 16 16 17 19 20 23 24 24 25 24 25 26 24 20 15 10 7 2 6 12 19
5 8 3 3 4 7 15 7 17 8 9 10 14 22 21 15 7 7 7 7 9 11 12 14 15 15 17 17 19 22 22 24 25 24 25 24 21 18 14 10 7 4 5 9
2 3 10 3 3 6 7 7 18 18 15 18 13 11 14 3 3 6 7 7 8 9 10 13 15 14 15 16 17 19 22 24 25 24 23 24 23 22 18 15 10 7 3 1
2 2 5 2 3 6 4 4 7 17 11 7 4 1 4 4 7 10 8 8 7 9 9 11 12 13 14 16 17 18 21 22 22 21 22 22 22 21 20 17 15 11 9 7
6 4 9 6 6 5 4 4 6 18 16 10 5 8 10 15 16 12 10 9 9 8 9 9 10 12 12 13 15 17 18 18 19 19 19 20 18 18 18 17 15 13 12 12
4 4 9 13 6 6 5 3 4 9 16 18 18 13 16 17 14 12 12 11 11 10 8 9 10 11 12 13 14 15 16 16 17 18 17 17 18 17 17 17 16 17 15 13
11 8 1 25 8 11 14 12 12 13 19 20 21 18 19 16 13 12 13 12 12 13 10 9 9 10 11 12 13 14 14 15 15 16 15 15 15 16 17 19 20 19 19 17
2 8 14 21 29 30 30 33 30 23 21 19 23 26 23 15 13 13 13 12 12 14 13 10 10 9 11 12 13 14 14 14 13 14 15 13 12 14 16 18 20 22 22 20
6 14 21 33 26 13 11 12 10 18 19 19 16 19 15 17 15 12 13 13 14 14 14 11 11 10 10 12 13 12 13 12 11 11 12 12 11 11 12 12 13 17 19 22
12 10 12 23 12 12 15 17 16 17 19 17 17 17 18 20 14 14 14 14 14 15 15 14 12 12 10 11 13 14 12 11 9 8 9 10 10 9 8 10 10 8 12 15
25 24 22 21 25 27 24 11 18 24 21 20 17 15 14 17 17 16 15 15 13 13 14 15 14 13 11 12 13 15 13 10 9 7 6 6 8 10 10 9 10 11 11 12
17 19 21 26 18 12 19 21 22 23 23 23 21 18 19 19 16 16 14 13 14 14 14 14 13 11 12 13 14 15 13 11 9 6 5 4 5 7 9 11 13 13 13 15
18 15 19 20 21 22 20 21 25 27 25 23 19 17 17 16 15 13 14 14 14 13 13 12 11 10 13 14 14 13 11 11 10 8 5 3 3 4 7 9 11 12 12 12
9 10 16 18 20 21 21 23 28 30 25 23 18 15 14 14 13 12 12 11 11 8 10 11 9 11 12 13 12 11 10 11 11 10 8 5 3 2 5 8 10 12 13 12
10 7 12 16 22 25 26 27 28 28 25 22 18 14 13 13 11 10 10 8 8 9 10 8 8 10 12 11 10 9 9 12 13 13 11 8 5 4 4 6 9 12 14 12
16 17 18 19 22 25 28 29 29 24 23 19 15 12 12 11 9 8 6 6 8 9 7 6 7 9 10 9 8 8 9 12 14 14 12 10 7 6 5 6 9 10 11 13
22 25 27 25 29 27 25 29 27 22 20 16 12 10 9 8 7 6 4 6 7 7 5 5 6 7 6 7 6 6 8 10 12 13 13 11 10 8 8 8 9 10 11 12
29 29 31 32 30 33 24 26 24 20 15 12 9 9 8 7 6 5 6 7 6 4 3 4 6 6 5 5 4 5 7 9 11 12 13 12 11 10 10 10 11 11 13 14
29 30 31 28 34 39 23 22 19 13 10 8 8 7 6 6 7 7 7 6 3 2 3 3 2 1 1 2 1 5 6 7 8 10 11 12 13 13 14 13 12 13 15 15
30 38 42 37 28 26 19 17 12 8 7 7 7 6 7 9 10 9 7 4 2 2 2 2 1 0 3 2 3 2 2 2 5 6 8 10 11 12 13 13 14 15 14 14
39 38 31 26 23 16 12 10 7 5 5 5 5 7 8 8 8 6 5 3 4 4 2 2 6 0 6 6 4 4 3 4 4 6 8 10 12 14 15 17 17 15 14 13
33 27 20 15 10 10 9 5 3 3 5 7 8 8 8 9 8 5 3 3 4 4 5 6 3 6 3 4 4 5 6 7 9 11 12 14 16 17 18 19 19 20 21 20
22 19 14 12 11 7 4 3 4 7 9 10 11 11 10 8 5 5 5 6 5 5 7 8 5 3 5 7 8 9 10 10 11 13 14 15 17 19 21 23 25 25 26 25
17 14 12 9 6 3 2 4 6 9 10 12 12 10 8 6 4 5 6 6 5 2 4 6 8 7 6 6 6 6 7 7 7 8 9 10 11 12 14 16 18 20 23 25
12 11 8 6 4 1 3 5 8 10 10 9 9 9 7 5 6 6 5 4 3 2 1 1 2 3 2 3 4 4 4 5 5 6 7 9 11 13 15 17 18 18 20 21
Wind_Direction
256 265 246 245 219 182 201 184 193 253 219 267 283 281 289 301 304 304 314 325 330 336 345 351 355 358 1 5 6 7 11 23 28 29 30 27 25 31 192 191 196 207 200 192
286 254 236 250 240 210 212 208 262 263 286 276 276 281 279 284 293 300 309 318 327 333 342 352 356 359 1 4 6 7 11 18 26 28 32 30 26 27 26 70 178 190 204 202
267 336 294 276 233 205 183 203 191 193 231 320 280 254 283 308 305 300 300 310 322 330 342 351 354 356 2 4 2 7 13 17 22 27 30 33 27 22 30 34 95 167 182 186
278 315 299 256 178 180 201 206 211 262 261 243 258 295 300 303 289 296 292 301 318 327 341 351 355 355 360 3 2 6 14 19 19 25 28 32 31 27 28 27 32 60 145 171
269 272 298 251 166 151 173 275 206 217 249 264 291 308 304 279 305 309 288 298 314 325 337 351 356 355 358 1 5 5 13 17 18 18 22 27 33 28 23 24 21 22 25 214
166 233 260 291 167 157 149 291 181 192 229 239 164 29 262 288 310 318 284 286 299 318 327 342 353 358 359 0 5 8 11 11 14 18 20 22 25 30 27 23 17 11 6 344
220 256 278 244 157 145 78 249 172 203 229 207 188 229 287 297 302 299 286 276 276 293 313 326 341 352 3 2 3 7 7 5 7 16 21 21 18 22 26 25 24 13 6 11
173 215 271 151 120 176 216 210 235 244 250 238 245 275 289 292 291 288 283 273 266 267 293 308 321 340 353 0 0 359 1 1 3 9 17 20 19 18 21 26 21 24 17 9
194 216 272 189 234 257 265 272 278 290 299 282 259 266 299 292 285 282 280 271 261 257 266 284 299 321 338 347 351 354 353 357 0 2 7 13 20 25 22 24 24 19 19 14
103 250 250 251 266 270 277 275 285 298 305 290 262 273 282 290 289 284 276 268 261 249 250 265 281 299 320 331 340 345 347 346 351 354 0 4 11 19 27 30 25 23 11 13
256 281 288 279 273 288 296 281 293 307 301 302 284 273 269 296 283 277 271 271 264 253 250 258 267 279 299 314 324 331 334 333 338 347 350 357 4 4 13 22 25 22 17 9
252 261 252 270 314 322 316 297 300 316 318 311 289 281 278 291 280 280 271 272 268 254 248 252 259 266 280 296 308 316 319 316 317 331 340 348 357 5 1 0 1 10 17 15
251 270 258 273 284 299 295 303 305 312 308 307 296 287 273 279 286 284 277 275 267 254 248 248 254 260 269 282 296 305 303 294 291 305 320 335 351 359 5 12 5 3 7 6
270 256 266 263 260 271 296 313 311 310 307 309 300 283 277 278 281 287 284 266 251 247 246 243 246 251 264 281 295 299 291 275 265 274 285 313 340 353 1 4 5 6 6 5
255 246 259 267 268 289 306 313 313 313 313 308 300 286 283 279 284 289 274 259 248 245 242 239 240 246 267 286 297 292 277 259 248 243 248 260 302 337 355 2 3 2 2 4
325 270 266 271 291 302 311 319 318 319 315 312 300 284 283 277 285 285 279 268 253 244 228 229 238 255 277 290 294 286 268 240 234 229 228 237 248 296 345 351 356 359 358 359
287 314 308 297 305 313 320 319 319 317 312 306 302 283 274 274 283 285 275 260 232 219 222 227 242 271 286 291 288 279 252 223 221 223 221 226 238 262 315 337 341 344 347 351
241 279 297 306 315 331 323 313 315 314 310 305 292 277 268 273 277 272 259 225 203 203 211 237 270 282 287 288 283 269 237 220 222 231 231 228 232 256 287 312 324 333 339 340
305 303 313 311 319 310 311 309 310 308 304 296 280 271 268 263 262 248 216 185 176 181 220 265 283 289 291 290 281 256 232 226 227 230 232 232 236 256 277 294 307 318 324 327
333 333 329 322 314 305 302 310 305 304 295 282 267 262 256 243 232 202 172 167 175 206 247 283 290 286 289 289 276 238 230 230 233 236 236 240 244 254 267 279 295 304 313 314
330 330 322 321 311 312 292 312 306 301 288 273 266 248 219 207 189 179 172 171 188 246 275 283 298 317 355 8 303 251 238 235 236 233 238 239 247 254 264 275 282 289 301 301
319 320 316 314 308 305 301 305 303 290 278 263 234 207 200 182 176 171 172 178 196 239 270 272 301 68 83 348 316 350 23 260 246 249 253 255 259 262 266 271 276 284 288 290
318 318 313 305 302 288 299 302 289 276 252 216 188 182 173 167 164 171 172 187 215 243 270 143 78 38 235 263 281 273 277 281 261 254 256 258 258 263 265 267 271 270 274 279
322 320 316 304 295 303 307 291 263 212 178 164 162 161 171 172 170 178 183 170 158 165 117 93 160 242 272 280 285 284 285 284 282 279 276 275 275 275 275 276 276 274 272 271
320 320 319 315 311 312 295 247 192 161 160 159 156 157 164 169 177 181 174 159 159 171 165 163 219 274 292 299 300 300 298 294 287 285 287 286 285 284 282 281 279 277 274 270
324 324 326 329 330 320 256 182 169 161 164 160 159 163 169 173 173 169 174 185 202 190 208 231 261 291 307 315 316 313 312 309 309 309 314 318 314 310 305 301 295 288 280 274
336 336 343 347 351 33 153 162 170 166 165 168 167 162 167 167 164 163 165 170 181 191 204 255 305 343 20 32 50 58 59 51 39 25 10 358 346 335 324 315 308 303 296 288